{"data":{"norad_id":28895,"intl_designator":"2005-043F","name":"CUBESAT XI-V","alt_names":[],"object_type":"PAYLOAD","status":"ACTIVE","operator":null,"country":"JPN","launch_date":"2005-10-27","launch_site_code":"PLMSC","launch_vehicle":null,"mission":null,"orbit_class":"UNKNOWN","rcs_meters":0.0151,"size_class":null,"mass_kg":null,"dimensions":null,"purposes":["comms","tech_demo"],"wikipedia_slug":null,"has_3d_model":false,"image_url":null,"decayed_at":null,"tle_current":{"epoch":"2026-09-19T03:52:38.705376Z","epoch_age_seconds":133722,"freshness":"FRESH","line1":"1 28895U 05043F   26262.16155909  .00000866  00000+0  14351-3 0  9994","line2":"2 28895  98.3107  59.8396 0012759 267.1985  92.7762 14.72833561115587","mean_motion":14.72833561,"eccentricity":0.0012759,"inclination_deg":98.3107,"raan_deg":59.8396,"arg_perigee_deg":267.1985,"mean_anomaly_deg":92.7762,"bstar":0.00014351,"rev_number":11558,"period_min":97.770721562204,"perigee_km":643.06697502992,"apogee_km":661.00657246577,"semimajor_km":7030.1737737478,"source":"CELESTRAK","updated_at":"2026-09-20T09:00:47.986310Z"}}}